Regional Weather Roundup
Issued by NWS Columbia, SC

Home | Current Version | Previous Version | Text Only | Print | Product List | Glossary On
Versions: 1 2 3 4 5 6 7 8 9 10 11 12 13 14 15 16 17 18 19 20 21 22 23 24 25 26 27 28 29 30 31 32 33 34 35 36 37 38 39 40 41 42 43 44 45 46 47 48 49 50
354
ASUS42 KCAE 191510
RWRCAE
REGIONAL WEATHER ROUNDUP
NATIONAL WEATHER SERVICE COLUMBIA SC
1100 AM EDT TUE SEP 19 2017

NOTE: "FAIR" INDICATES FEW OR NO CLOUDS BELOW 12,000 FEET WITH NO
SIGNIFICANT WEATHER AND/OR OBSTRUCTIONS TO VISIBILITY.

NOT ALL STATIONS ARE QUALITY CONTROLLED BY THE NATIONAL
WEATHER SERVICE. USE DATA WITH CAUTION...ESPECIALLY
DEWPOINT OBSERVATIONS.

SCZ001>056-GAZ040-063>065-077-191600-
...UPSTATE SOUTH CAROLINA...

CITY           SKY/WX    TMP DP  RH WIND       PRES   REMARKS
ANDERSON       SUNNY     79  67  66 E8        30.06S
LIBERTY        PTSUNNY   76  66  71 E5        30.07R
SPARTANBURG    MOSUNNY   73  63  68 CALM      30.07S
CLEMSON        SUNNY     78  68  71 N5        30.07S
GREENVILLE     PTSUNNY   77  65  66 E6        30.08S
GREENWOOD      MOSUNNY   76  69  79 E6        30.07S
GREER          CLOUDY    73  67  81 NE3       30.08S
ROCK HILL        N/A    N/A N/A N/A MISG      30.07S
CHESTER        SUNNY     77  63  61 NE6       30.07S
LAURENS        CLOUDY    72  66  83 CALM      30.06S


...CENTRAL SOUTH CAROLINA...

CITY           SKY/WX    TMP DP  RH WIND       PRES   REMARKS
COLUMBIA APT   MOSUNNY   81  67  62 E3        30.03S
COLUMBIA OWENS SUNNY     81  65  58 CALM      30.04S
MCENTIRE ANGB  SUNNY     80  65  60 E6        30.04S
ORANGEBURG     SUNNY    N/A N/A N/A MISG      30.03S
SUMTER SHAW    SUNNY     80  66  61 N6        30.01F
NEWBERRY       MOSUNNY   77  66  69 CALM      30.08S
AIKEN          PTSUNNY   79  64  61 CALM      30.07S
BARNWELL       FAIR      82  70  65 CALM      30.03S
MANNING        FAIR      79  61  53 NE5       30.03S
CAMDEN         FAIR      79  64  61 N6        30.04F
LANCASTER      SUNNY     79  64  61 E5        30.06S
WINNSBORO      SUNNY     79  64  61 NE5       30.05S


...EASTERN AND COASTAL SOUTH CAROLINA...

CITY           SKY/WX    TMP DP  RH WIND       PRES   REMARKS
MYRTLE BEACH   SUNNY     79  67  66 NW9       30.00F
N MYRTLE BCH   SUNNY     80  68  66 VRB5      29.98S
CONWAY         FAIR      77  68  73 NW5       30.01S
MARION         FAIR      75  64  69 N7        30.02S
HARTSVILLE     FAIR      77  64  65 NW3       30.03F
FLORENCE       SUNNY     78  67  68 NW7       30.03S
DARLINGTON     SUNNY     78  68  71 N5        30.04S
CHARLESTON APT MOSUNNY   81  69  67 N6        30.02S
MOUNT PLEASANT FAIR      81  70  69 NW3       30.02S
WALTERBORO     PTSUNNY   79  68  69 CALM      30.03S
BEAUFORT       SUNNY     83  71  67 W5        30.02S


...EASTERN GEORGIA...

CITY           SKY/WX    TMP DP  RH WIND       PRES   REMARKS
AUGUSTA BUSH F MOSUNNY   84  69  60 CALM      30.01F
AUGUSTA DANIEL PTSUNNY   83  67  58 SE5       30.04R
THOMSON        SUNNY     82  69  64 CALM      30.08S
WASHINGTON     FAIR     N/A N/A N/A CALM      30.04
CLAXTON        FAIR      83  70  63 W3        30.02S
SYLVANIA       PTSUNNY   83  73  71 CALM      30.03F
STATESBORO     MOSUNNY   84  64  51 W3        30.02F
SAVANNAH       MOSUNNY   85  68  56 NW7       30.02S


...SOUTHERN NORTH CAROLINA...

CITY           SKY/WX    TMP DP  RH WIND       PRES   REMARKS
CHARLOTTE      MOSUNNY   78  67  68 E6        30.07S
MONROE         SUNNY     76  68  76 N6        30.05F
WADESBORO      SUNNY     77  65  67 N5        30.04F
RUTHERFORDTON  SUNNY     74  65  74 CALM      30.09S
ASHEVILLE      SUNNY     71  61  70 SE5       30.12F

$$




USA.gov is the U.S. government's official web portal to all federal, state and local government web resources and services.